sat.trackr.live / text

‹ back to catalog

KUIPER-00069

NORAD 64816 · 2025-151A

PAYLOAD ACTIVE UNKNOWN

§ Identity

Operator
Country
US
Launch date
2025-07-16
Launch site
AFETR
Launch vehicle
Mass (kg)
RCS (m²)

External: N2YO · Heavens-Above · Gunter

§ Orbital elements

Epoch: 2026-05-25T03:47:22.419168Z

Period
97.30 min
Inclination
51.9021°
Eccentricity
0.0000601
Mean motion
14.79935932 rev/d
Perigee alt
629.1 km
Apogee alt
629.9 km
Semi-major
7,007.7 km
B*
5.1091e-4
RAAN
302.4931°
Arg perigee
111.5714°
Mean anomaly
248.5313°
Rev number
4,808

§ Raw data

KUIPER-000691 64816U 25151A   26145.15789837  .00003676  00000+0  51091-3 0  99952 64816  51.9021 302.4931 0000601 111.5714 248.5313 14.79935932 48082

JSON: /api/v1/satellites/64816 · /tle

For live sub-satellite position, see the globe view (requires WebGL).

§ Visibility from observer

Set your observer location to see the next 7 days of passes ≥ 10°. The values pass through the URL so the page stays shareable.

No JS? Fill the form by hand. The geolocation button needs JavaScript.